| time (UTC) | temp F | wind direction | speed MPH | gust MPH | rain 1hr in | rain 24hr in | rain mn in | humidity % | barometer mb |
| 20260905081756 | 76 | 307 | 0.0 | 0.0 | 0.00 | 0.00 | 0.00 | 70 | 1010.8 |
| 20260905080837 | 76 | 307 | 0.0 | 0.0 | 0.00 | 0.00 | 0.00 | 70 | 1010.8 |
| 20260905075131 | 76 | 307 | 0.0 | 0.0 | 0.00 | 0.00 | 0.00 | 69 | 1010.8 |
| 20260905074548 | 77 | 307 | 0.0 | 0.0 | 0.00 | 0.00 | 0.00 | 69 | 1010.8 |
| 20260905074544 | 77 | 307 | 0.0 | 0.0 | 0.00 | 0.00 | 0.00 | 69 | 1010.9 |
| 20260905074148 | 76 | 307 | 0.0 | 0.0 | 0.00 | 0.00 | 0.00 | 69 | 1010.7 |
| 20260905072250 | 77 | 307 | 0.0 | 0.0 | 0.00 | 0.00 | 0.00 | 69 | 1010.8 |
| 20260905071717 | 77 | 307 | 0.0 | 0.0 | 0.00 | 0.00 | 0.00 | 69 | 1010.9 |
| 20260905064145 | 77 | 298 | 0.0 | 0.0 | 0.00 | 0.01 | 0.00 | 67 | 1010.9 |
| 20260905063210 | 77 | 298 | 0.0 | 0.0 | 0.00 | 0.01 | 0.00 | 67 | 1010.8 |
| 20260905061836 | 77 | 298 | 0.0 | 0.0 | 0.00 | 0.01 | 0.00 | 67 | 1010.9 |
| 20260905060938 | 78 | 297 | 0.0 | 0.0 | 0.00 | 0.01 | 0.00 | 68 | 1011.2 |
| 20260905060543 | 78 | 298 | 0.0 | 0.0 | 0.00 | 0.01 | 0.00 | 67 | 1011.0 |
| 20260905055920 | 78 | 343 | 0.0 | 0.0 | 0.00 | 0.01 | 0.00 | 67 | 1011.0 |
| 20260905054559 | 78 | 297 | 0.0 | 0.0 | 0.00 | 0.01 | 0.00 | 68 | 1011.0 |
| 20260905054022 | 78 | 297 | 0.0 | 0.0 | 0.00 | 0.01 | 0.00 | 68 | 1011.2 |
| 20260905053513 | 78 | 297 | 0.0 | 0.0 | 0.00 | 0.01 | 0.00 | 68 | 1011.2 |
| 20260905052740 | 78 | 297 | 0.0 | 0.0 | 0.00 | 0.01 | 0.00 | 68 | 1011.2 |
| 20260905052059 | 78 | 297 | 0.0 | 0.0 | 0.00 | 0.01 | 0.00 | 67 | 1011.2 |
| 20260905050435 | 79 | 297 | 0.0 | 0.0 | 0.00 | 0.01 | 0.00 | 66 | 1011.5 |
| 20260905045739 | 79 | 297 | 0.0 | 0.0 | 0.00 | 0.01 | 0.00 | 66 | 1011.5 |
| 20260905045238 | 79 | 297 | 0.0 | 0.0 | 0.00 | 0.01 | 0.00 | 66 | 1011.5 |
| 20260905044328 | 79 | 297 | 0.0 | 0.0 | 0.00 | 0.00 | 0.00 | 66 | 1011.6 |
| 20260905044324 | 79 | 297 | 0.0 | 0.0 | 0.00 | 0.01 | 0.00 | 66 | 1011.6 |
| 20260905043337 | 80 | 297 | 0.0 | 0.0 | 0.00 | 0.01 | 0.00 | 66 | 1011.9 |
| 20260905042740 | 79 | 297 | 0.0 | 0.0 | 0.00 | 0.01 | 0.00 | 66 | 1011.8 |
| 20260905041919 | 79 | 297 | 0.0 | 0.0 | 0.00 | 0.01 | 0.00 | 66 | 1011.8 |
| 20260905041407 | 79 | 297 | 0.0 | 0.0 | 0.00 | 0.01 | 0.00 | 66 | 1011.8 |
| 20260905040837 | 80 | 297 | 0.0 | 0.0 | 0.00 | 0.01 | 0.00 | 66 | 1011.9 |
| 20260905040139 | 80 | 297 | 0.0 | 0.0 | 0.00 | 0.01 | 0.00 | 68 | 1011.7 |
| 20260905035917 | 80 | 297 | 0.0 | 0.0 | 0.00 | 0.01 | 0.00 | 67 | 1011.8 |
| 20260905034728 | 80 | 297 | 0.0 | 0.0 | 0.00 | 0.01 | 0.00 | 68 | 1011.8 |
| 20260905034131 | 80 | 297 | 0.0 | 0.0 | 0.00 | 0.01 | 0.00 | 68 | 1011.7 |
| 20260905033513 | 80 | 297 | 0.0 | 0.0 | 0.00 | 0.01 | 0.00 | 68 | 1011.6 |
| 20260905032953 | 80 | 297 | 0.0 | 0.0 | 0.00 | 0.01 | 0.00 | 68 | 1011.6 |
| 20260905032949 | 80 | 297 | 0.0 | 0.0 | 0.00 | 0.01 | 0.00 | 68 | 1011.6 |
| 20260905032252 | 80 | 297 | 0.0 | 0.0 | 0.00 | 0.01 | 0.00 | 68 | 1011.6 |
| 20260905031324 | 80 | 297 | 0.0 | 0.0 | 0.00 | 0.01 | 0.00 | 68 | 1011.6 |
| 20260905025734 | 81 | 297 | 0.0 | 0.0 | 0.00 | 0.01 | 0.00 | 68 | 1011.5 |
| 20260905024643 | 80 | 297 | 0.0 | 0.0 | 0.00 | 0.01 | 0.00 | 68 | 1011.5 |
| 20260905023230 | 81 | 297 | 0.0 | 0.0 | 0.00 | 0.01 | 0.00 | 68 | 1011.5 |
| 20260905023228 | 81 | 297 | 0.0 | 0.0 | 0.00 | 0.01 | 0.00 | 68 | 1011.5 |
| 20260905022547 | 81 | 297 | 0.0 | 0.0 | 0.00 | 0.01 | 0.00 | 69 | 1011.4 |
| 20260905022538 | 81 | 297 | 0.0 | 0.0 | 0.00 | 0.01 | 0.00 | 70 | 1011.5 |
| 20260905022105 | 81 | 297 | 0.0 | 0.0 | 0.00 | 0.01 | 0.00 | 68 | 1011.4 |
| 20260905020836 | 81 | 297 | 0.0 | 0.0 | 0.00 | 0.01 | 0.00 | 69 | 1011.4 |
| 20260905020052 | 81 | 297 | 0.0 | 0.0 | 0.00 | 0.01 | 0.00 | 70 | 1011.5 |
| 20260905015343 | 82 | 297 | 0.0 | 0.0 | 0.00 | 0.01 | 0.00 | 70 | 1011.5 |
| 20260905015337 | 82 | 297 | 0.0 | 0.0 | 0.00 | 0.01 | 0.00 | 70 | 1011.6 |
| 20260905014720 | 82 | 297 | 0.0 | 0.0 | 0.00 | 0.01 | 0.00 | 70 | 1011.5 |
| 20260905014108 | 82 | 297 | 0.0 | 0.0 | 0.00 | 0.01 | 0.00 | 70 | 1011.5 |
| 20260905013523 | 82 | 297 | 0.0 | 0.0 | 0.00 | 0.01 | 0.00 | 70 | 1011.5 |
| 20260905012717 | 82 | 297 | 0.0 | 0.0 | 0.00 | 0.01 | 0.00 | 70 | 1011.6 |
| 20260905012147 | 82 | 297 | 0.0 | 0.0 | 0.00 | 0.01 | 0.00 | 70 | 1011.5 |
| 20260905012137 | 82 | 297 | 0.0 | 0.0 | 0.00 | 0.01 | 0.00 | 70 | 1011.3 |
| 20260905012133 | 82 | 297 | 0.0 | 0.0 | 0.00 | 0.01 | 0.00 | 70 | 1011.4 |
| 20260905012128 | 82 | 297 | 0.0 | 0.0 | 0.00 | 0.01 | 0.00 | 69 | 1011.4 |
| 20260905012036 | 82 | 297 | 0.0 | 0.0 | 0.00 | 0.01 | 0.00 | 71 | 1011.5 |
| 20260905011447 | 82 | 297 | 0.0 | 0.0 | 0.00 | 0.01 | 0.00 | 70 | 1011.5 |
| 20260905010918 | 82 | 297 | 0.0 | 0.0 | 0.00 | 0.01 | 0.00 | 70 | 1011.5 |
| 20260905010138 | 82 | 297 | 0.0 | 0.0 | 0.00 | 0.01 | 0.00 | 70 | 1011.3 |
| 20260905005513 | 82 | 297 | 0.0 | 0.0 | 0.00 | 0.01 | 0.00 | 70 | 1011.4 |
| 20260905005013 | 82 | 297 | 0.0 | 0.0 | 0.00 | 0.01 | 0.00 | 69 | 1011.4 |
| 20260905004941 | 83 | 297 | 0.0 | 0.0 | 0.00 | 0.01 | 0.00 | 69 | 1011.1 |
| 20260905004413 | 83 | 297 | 0.0 | 0.0 | 0.00 | 0.01 | 0.00 | 69 | 1011.3 |
| 20260905003913 | 83 | 297 | 0.0 | 0.0 | 0.00 | 0.01 | 0.00 | 69 | 1011.2 |
| 20260905003328 | 83 | 297 | 0.0 | 0.0 | 0.00 | 0.01 | 0.00 | 69 | 1011.1 |
| 20260905002706 | 83 | 297 | 0.0 | 0.0 | 0.00 | 0.01 | 0.00 | 68 | 1011.0 |
| 20260905001738 | 84 | 297 | 0.0 | 0.0 | 0.00 | 0.01 | 0.00 | 66 | 1011.0 |
| 20260905001733 | 84 | 297 | 0.0 | 0.0 | 0.00 | 0.01 | 0.00 | 66 | 1011.1 |
| 20260905000855 | 83 | 297 | 0.0 | 0.0 | 0.00 | 0.01 | 0.00 | 67 | 1011.0 |
| 20260905000218 | 84 | 297 | 0.0 | 0.0 | 0.00 | 0.01 | 0.00 | 67 | 1011.1 |
| 20260904235513 | 84 | 297 | 0.0 | 0.0 | 0.00 | 0.01 | 0.00 | 66 | 1011.0 |
| 20260904235000 | 84 | 297 | 0.0 | 0.0 | 0.00 | 0.01 | 0.00 | 66 | 1011.1 |
| 20260904234334 | 84 | 297 | 0.0 | 0.0 | 0.00 | 0.01 | 0.00 | 65 | 1011.1 |
| 20260904233818 | 84 | 297 | 0.0 | 0.0 | 0.00 | 0.01 | 0.00 | 65 | 1011.1 |
| 20260904233220 | 85 | 297 | 0.0 | 0.0 | 0.00 | 0.01 | 0.00 | 65 | 1011.3 |
| 20260904231934 | 85 | 297 | 0.0 | 0.0 | 0.00 | 0.01 | 0.00 | 64 | 1011.2 |
| 20260904231344 | 85 | 297 | 0.0 | 0.0 | 0.00 | 0.01 | 0.00 | 63 | 1011.2 |
| 20260904231331 | 86 | 315 | 0.0 | 0.0 | 0.00 | 0.01 | 0.00 | 62 | 1011.3 |
| 20260904230651 | 85 | 297 | 0.0 | 0.0 | 0.00 | 0.01 | 0.00 | 63 | 1011.2 |
| 20260904225938 | 85 | 297 | 0.0 | 0.0 | 0.00 | 0.01 | 0.00 | 63 | 1011.2 |
| 20260904225221 | 85 | 315 | 0.0 | 0.0 | 0.00 | 0.01 | 0.00 | 62 | 1011.3 |
| 20260904224636 | 86 | 315 | 0.0 | 0.0 | 0.00 | 0.01 | 0.00 | 62 | 1011.3 |
| 20260904223940 | 86 | 315 | 0.0 | 0.0 | 0.00 | 0.01 | 0.00 | 61 | 1011.3 |
| 20260904223240 | 86 | 301 | 0.0 | 0.0 | 0.00 | 0.01 | 0.00 | 61 | 1011.3 |
| 20260904222725 | 86 | 308 | 2.0 | 1.0 | 0.00 | 0.01 | 0.00 | 60 | 1011.2 |
| 20260904222113 | 86 | 354 | 2.0 | 2.0 | 0.00 | 0.01 | 0.00 | 60 | 1011.3 |
| 20260904221434 | 86 | 350 | 0.0 | 0.0 | 0.00 | 0.01 | 0.00 | 59 | 1011.2 |
| 20260904220937 | 87 | 194 | 0.0 | 1.0 | 0.00 | 0.01 | 0.00 | 57 | 1011.2 |
| 20260904220929 | 87 | 349 | 0.0 | 0.0 | 0.00 | 0.01 | 0.00 | 58 | 1011.2 |
| 20260904220716 | 87 | 350 | 1.0 | 0.0 | 0.00 | 0.01 | 0.00 | 59 | 1011.1 |
| 20260904214925 | 87 | 194 | 0.0 | 1.0 | 0.00 | 0.01 | 0.00 | 57 | 1011.2 |
| 20260904214322 | 87 | 349 | 0.0 | 0.0 | 0.00 | 0.01 | 0.00 | 58 | 1011.2 |
| 20260904213733 | 89 | 343 | 1.0 | 0.0 | 0.00 | 0.01 | 0.00 | 56 | 1010.9 |
| 20260904213204 | 88 | 328 | 0.0 | 0.0 | 0.00 | 0.01 | 0.00 | 56 | 1011.3 |
| 20260904211344 | 89 | 343 | 1.0 | 0.0 | 0.00 | 0.01 | 0.00 | 56 | 1010.9 |
| 20260904210529 | 90 | 276 | 0.0 | 0.0 | 0.00 | 0.01 | 0.00 | 54 | 1011.2 |
| 20260904210315 | 89 | 270 | 2.0 | 0.0 | 0.00 | 0.01 | 0.00 | 56 | 1010.9 |
| 20260904205716 | 89 | 3 | 2.0 | 3.0 | 0.00 | 0.01 | 0.00 | 56 | 1011.0 |
| 20260904204959 | 89 | 330 | 0.0 | 1.0 | 0.00 | 0.01 | 0.00 | 56 | 1011.1 |
| 20260904204451 | 89 | 15 | 2.0 | 0.0 | 0.00 | 0.01 | 0.00 | 55 | 1011.1 |
| 20260904203824 | 90 | 276 | 0.0 | 0.0 | 0.00 | 0.01 | 0.00 | 54 | 1011.2 |
| 20260904203337 | 91 | 354 | 2.0 | 1.0 | 0.00 | 0.01 | 0.00 | 54 | 1011.4 |
| 20260904203328 | 91 | 14 | 2.0 | 2.0 | 0.00 | 0.01 | 0.00 | 54 | 1011.4 |
| 20260904203234 | 90 | 259 | 0.0 | 0.0 | 0.00 | 0.01 | 0.00 | 54 | 1011.2 |
| 20260904202636 | 90 | 10 | 2.0 | 0.0 | 0.00 | 0.01 | 0.00 | 54 | 1011.2 |
| 20260904202131 | 91 | 283 | 1.0 | 2.0 | 0.00 | 0.01 | 0.00 | 54 | 1011.3 |
| 20260904201330 | 91 | 354 | 2.0 | 1.0 | 0.00 | 0.01 | 0.00 | 54 | 1011.4 |
| 20260904200825 | 91 | 14 | 2.0 | 2.0 | 0.00 | 0.01 | 0.00 | 54 | 1011.4 |
| 20260904200104 | 91 | 4 | 1.0 | 2.0 | 0.00 | 0.01 | 0.00 | 55 | 1011.4 |
| 20260904195254 | 91 | 347 | 2.0 | 1.0 | 0.00 | 0.01 | 0.00 | 54 | 1011.5 |
| 20260904194645 | 90 | 340 | 2.0 | 4.0 | 0.00 | 0.01 | 0.00 | 54 | 1011.6 |
| 20260904194130 | 91 | 316 | 2.0 | 1.0 | 0.00 | 0.01 | 0.00 | 54 | 1011.7 |
| 20260904193451 | 91 | 79 | 0.0 | 0.0 | 0.00 | 0.01 | 0.00 | 54 | 1011.8 |
| 20260904192929 | 90 | 267 | 1.0 | 1.0 | 0.00 | 0.01 | 0.00 | 54 | 1012.1 |
| 20260904192905 | 91 | 298 | 1.0 | 0.0 | 0.00 | 0.01 | 0.00 | 53 | 1012.0 |
| 20260904192403 | 91 | 172 | 0.0 | 0.0 | 0.00 | 0.01 | 0.00 | 54 | 1012.0 |
| 20260904191833 | 90 | 198 | 1.0 | 0.0 | 0.00 | 0.01 | 0.00 | 55 | 1012.0 |
| 20260904191101 | 90 | 28 | 1.0 | 1.0 | 0.00 | 0.01 | 0.00 | 55 | 1012.0 |
| 20260904190421 | 90 | 267 | 1.0 | 1.0 | 0.00 | 0.01 | 0.00 | 54 | 1012.1 |
| 20260904185728 | 92 | 332 | 0.0 | 1.0 | 0.00 | 0.01 | 0.00 | 53 | 1012.1 |
| 20260904185350 | 91 | 115 | 1.0 | 1.0 | 0.00 | 0.01 | 0.00 | 54 | 1011.9 |
| 20260904183513 | 92 | 332 | 0.0 | 1.0 | 0.00 | 0.01 | 0.00 | 53 | 1012.1 |
| 20260904182938 | 91 | 169 | 0.0 | 2.0 | 0.00 | 0.01 | 0.00 | 54 | 1012.0 |
| 20260904182528 | 90 | 259 | 1.0 | 0.0 | 0.00 | 0.01 | 0.00 | 53 | 1012.2 |
| 20260904182223 | 90 | 179 | 1.0 | 1.0 | 0.00 | 0.01 | 0.00 | 55 | 1012.1 |
| 20260904181513 | 90 | 319 | 0.0 | 2.0 | 0.00 | 0.01 | 0.00 | 54 | 1012.2 |
| 20260904181006 | 90 | 315 | 0.0 | 0.0 | 0.00 | 0.01 | 0.00 | 55 | 1012.2 |
| 20260904180408 | 90 | 259 | 1.0 | 0.0 | 0.00 | 0.01 | 0.00 | 53 | 1012.2 |
| 20260904175334 | 90 | 322 | 1.0 | 1.0 | 0.00 | 0.01 | 0.00 | 54 | 1012.2 |
| 20260904175321 | 90 | 346 | 1.0 | 2.0 | 0.00 | 0.01 | 0.00 | 54 | 1012.0 |
| 20260904175252 | 90 | 359 | 2.0 | 4.0 | 0.00 | 0.01 | 0.00 | 54 | 1012.2 |
| 20260904173938 | 90 | 329 | 0.0 | 2.0 | 0.00 | 0.01 | 0.00 | 54 | 1012.2 |
| 20260904173423 | 90 | 322 | 1.0 | 1.0 | 0.00 | 0.01 | 0.00 | 54 | 1012.2 |
| 20260904172905 | 90 | 42 | 0.0 | 3.0 | 0.00 | 0.01 | 0.00 | 54 | 1012.1 |
| 20260904172342 | 90 | 346 | 1.0 | 2.0 | 0.00 | 0.01 | 0.00 | 54 | 1012.0 |
| 20260904172135 | 91 | 105 | 1.0 | 0.0 | 0.00 | 0.01 | 0.00 | 54 | 1012.1 |
| 20260904172118 | 90 | 352 | 2.0 | 0.0 | 0.00 | 0.01 | 0.00 | 54 | 1012.1 |
| 20260904171742 | 90 | 359 | 1.0 | 2.0 | 0.00 | 0.01 | 0.00 | 53 | 1012.1 |
| 20260904171051 | 91 | 105 | 0.0 | 0.0 | 0.00 | 0.01 | 0.00 | 54 | 1012.2 |
| 20260904170459 | 91 | 105 | 1.0 | 0.0 | 0.00 | 0.01 | 0.00 | 54 | 1012.1 |
| 20260904165906 | 91 | 34 | 1.0 | 2.0 | 0.00 | 0.01 | 0.00 | 54 | 1012.1 |
| 20260904165130 | 90 | 352 | 2.0 | 0.0 | 0.00 | 0.01 | 0.00 | 54 | 1012.1 |
| 20260904164935 | 89 | 314 | 1.0 | 0.0 | 0.00 | 0.01 | 0.00 | 56 | 1012.1 |
| 20260904164927 | 89 | 333 | 0.0 | 0.0 | 0.00 | 0.01 | 0.00 | 57 | 1012.2 |
| 20260904164603 | 90 | 21 | 3.0 | 0.0 | 0.00 | 0.01 | 0.00 | 54 | 1012.1 |
| 20260904164059 | 89 | 339 | 0.0 | 0.0 | 0.00 | 0.01 | 0.00 | 56 | 1012.1 |
| 20260904163539 | 89 | 250 | 1.0 | 0.0 | 0.00 | 0.01 | 0.00 | 57 | 1012.1 |
| 20260904163036 | 89 | 314 | 1.0 | 0.0 | 0.00 | 0.01 | 0.00 | 56 | 1012.1 |
| 20260904162536 | 89 | 333 | 0.0 | 0.0 | 0.00 | 0.01 | 0.00 | 57 | 1012.2 |
| 20260904161952 | 88 | 4 | 1.0 | 0.0 | 0.00 | 0.01 | 0.00 | 57 | 1012.3 |
| 20260904161734 | 87 | 323 | 2.0 | 0.0 | 0.00 | 0.01 | 0.00 | 59 | 1012.3 |
| 20260904161720 | 86 | 330 | 2.0 | 1.0 | 0.00 | 0.01 | 0.00 | 62 | 1012.4 |
| 20260904161244 | 87 | 11 | 3.0 | 1.0 | 0.00 | 0.01 | 0.00 | 58 | 1012.3 |
| 20260904160710 | 87 | 323 | 2.0 | 0.0 | 0.00 | 0.01 | 0.00 | 59 | 1012.3 |
| 20260904154837 | 86 | 330 | 2.0 | 1.0 | 0.00 | 0.01 | 0.00 | 62 | 1012.4 |
| 20260904152253 | 84 | 18 | 1.0 | 0.0 | 0.00 | 0.01 | 0.00 | 66 | 1012.6 |
| 20260904151749 | 84 | 11 | 0.0 | 0.0 | 0.00 | 0.01 | 0.00 | 67 | 1012.6 |
| 20260904151323 | 83 | 357 | 3.0 | 3.0 | 0.00 | 0.01 | 0.00 | 69 | 1012.5 |
| 20260904151142 | 83 | 20 | 3.0 | 4.0 | 0.00 | 0.01 | 0.00 | 67 | 1012.6 |
| 20260904150623 | 83 | 323 | 1.0 | 0.0 | 0.00 | 0.01 | 0.00 | 67 | 1012.5 |
| 20260904150120 | 83 | 1 | 1.0 | 4.0 | 0.00 | 0.01 | 0.00 | 68 | 1012.6 |
| 20260904145554 | 83 | 18 | 1.0 | 2.0 | 0.00 | 0.01 | 0.00 | 68 | 1012.5 |
| 20260904145055 | 83 | 357 | 3.0 | 3.0 | 0.00 | 0.01 | 0.00 | 69 | 1012.5 |
| 20260904144556 | 83 | 203 | 1.0 | 0.0 | 0.00 | 0.01 | 0.00 | 70 | 1012.6 |
| 20260904144128 | 82 | 307 | 0.0 | 0.0 | 0.00 | 0.01 | 0.00 | 75 | 1012.6 |
| 20260904142924 | 82 | 354 | 1.0 | 2.0 | 0.00 | 0.01 | 0.00 | 73 | 1012.6 |
| 20260904142327 | 82 | 315 | 1.0 | 0.0 | 0.00 | 0.01 | 0.00 | 74 | 1012.6 |
| 20260904141750 | 82 | 307 | 0.0 | 0.0 | 0.00 | 0.01 | 0.00 | 75 | 1012.6 |
| 20260904141245 | 82 | 30 | 2.0 | 3.0 | 0.00 | 0.01 | 0.00 | 75 | 1012.6 |
| 20260904140924 | 81 | 345 | 1.0 | 0.0 | 0.00 | 0.01 | 0.00 | 81 | 1012.5 |
| 20260904140515 | 81 | 350 | 1.0 | 4.0 | 0.00 | 0.01 | 0.00 | 78 | 1012.5 |
| 20260904134432 | 81 | 345 | 1.0 | 0.0 | 0.00 | 0.01 | 0.00 | 81 | 1012.5 |
| 20260904133720 | 80 | 319 | 2.0 | 0.0 | 0.00 | 0.01 | 0.00 | 87 | 1012.3 |
| 20260904133716 | 81 | 339 | 1.0 | 0.0 | 0.00 | 0.01 | 0.00 | 82 | 1012.4 |
| 20260904132717 | 80 | 359 | 2.0 | 3.0 | 0.00 | 0.01 | 0.00 | 84 | 1012.2 |
| 20260904132029 | 80 | 1 | 1.0 | 0.0 | 0.00 | 0.01 | 0.00 | 85 | 1012.2 |
| 20260904131245 | 80 | 319 | 2.0 | 0.0 | 0.00 | 0.01 | 0.00 | 87 | 1012.3 |
| 20260904131241 | 80 | 319 | 2.0 | 0.0 | 0.00 | 0.01 | 0.00 | 87 | 1012.3 |
| 20260904130622 | 80 | 10 | 0.0 | 0.0 | 0.00 | 0.01 | 0.00 | 88 | 1012.2 |
| 20260904130528 | 79 | 125 | 0.0 | 3.0 | 0.00 | 0.01 | 0.00 | 90 | 1012.3 |
| 20260904130521 | 79 | 316 | 1.0 | 0.0 | 0.00 | 0.01 | 0.00 | 90 | 1012.3 |
| 20260904130051 | 79 | 349 | 0.0 | 0.0 | 0.00 | 0.01 | 0.00 | 89 | 1012.2 |
| 20260904125413 | 79 | 339 | 0.0 | 1.0 | 0.00 | 0.01 | 0.00 | 89 | 1012.3 |
| 20260904124825 | 79 | 125 | 0.0 | 3.0 | 0.00 | 0.01 | 0.00 | 90 | 1012.3 |
| 20260904124326 | 79 | 316 | 1.0 | 0.0 | 0.00 | 0.01 | 0.00 | 90 | 1012.3 |
| 20260904123749 | 78 | 357 | 0.0 | 0.0 | 0.00 | 0.01 | 0.00 | 91 | 1012.2 |
| 20260904123325 | 78 | 293 | 0.0 | 0.0 | 0.00 | 0.01 | 0.00 | 94 | 1012.2 |
| 20260904123311 | 77 | 194 | 0.0 | 0.0 | 0.00 | 0.01 | 0.00 | 95 | 1012.2 |
| 20260904123235 | 79 | 49 | 1.0 | 2.0 | 0.00 | 0.01 | 0.00 | 92 | 1012.2 |
| 20260904122513 | 78 | 293 | 0.0 | 0.0 | 0.00 | 0.01 | 0.00 | 93 | 1012.3 |
| 20260904122008 | 78 | 293 | 0.0 | 0.0 | 0.00 | 0.01 | 0.00 | 93 | 1012.2 |
| 20260904121440 | 78 | 293 | 0.0 | 0.0 | 0.00 | 0.01 | 0.00 | 94 | 1012.2 |
| 20260904121437 | 78 | 293 | 0.0 | 0.0 | 0.00 | 0.01 | 0.00 | 94 | 1012.2 |
| 20260904120834 | 77 | 194 | 0.0 | 0.0 | 0.00 | 0.01 | 0.00 | 94 | 1012.1 |
| 20260904120302 | 77 | 194 | 0.0 | 0.0 | 0.00 | 0.01 | 0.00 | 95 | 1012.2 |
| 20260904120127 | 77 | 194 | 0.0 | 0.0 | 0.00 | 0.01 | 0.00 | 96 | 1012.3 |
| 20260904120119 | 76 | 194 | 0.0 | 0.0 | 0.00 | 0.01 | 0.00 | 97 | 1012.1 |
| 20260904115743 | 77 | 194 | 0.0 | 0.0 | 0.00 | 0.01 | 0.00 | 95 | 1012.3 |
| 20260904114426 | 77 | 194 | 0.0 | 0.0 | 0.00 | 0.01 | 0.00 | 96 | 1012.3 |
| 20260904113906 | 76 | 194 | 0.0 | 0.0 | 0.00 | 0.01 | 0.00 | 97 | 1012.1 |
| 20260904113309 | 76 | 191 | 0.0 | 0.0 | 0.00 | 0.01 | 0.00 | 97 | 1012.1 |
| 20260904112916 | 75 | 169 | 0.0 | 0.0 | 0.00 | 0.01 | 0.00 | 96 | 1011.7 |
| 20260904112911 | 75 | 169 | 0.0 | 0.0 | 0.00 | 0.01 | 0.00 | 96 | 1011.6 |
| 20260904112716 | 75 | 224 | 0.0 | 0.0 | 0.00 | 0.01 | 0.00 | 97 | 1011.9 |
| 20260904111922 | 75 | 224 | 0.0 | 0.0 | 0.00 | 0.01 | 0.00 | 96 | 1011.9 |
| 20260904111414 | 75 | 211 | 0.0 | 0.0 | 0.00 | 0.01 | 0.00 | 96 | 1011.7 |
| 20260904110859 | 75 | 191 | 0.0 | 1.0 | 0.00 | 0.01 | 0.00 | 96 | 1011.8 |
| 20260904110358 | 75 | 169 | 0.0 | 0.0 | 0.00 | 0.01 | 0.00 | 96 | 1011.7 |
| 20260904105857 | 75 | 169 | 0.0 | 0.0 | 0.00 | 0.01 | 0.00 | 96 | 1011.6 |
| 20260904105709 | 75 | 177 | 1.0 | 1.0 | 0.00 | 0.01 | 0.00 | 96 | 1011.5 |
| 20260904105349 | 75 | 169 | 0.0 | 0.0 | 0.00 | 0.01 | 0.00 | 96 | 1011.6 |
| 20260904104834 | 75 | 169 | 0.0 | 0.0 | 0.00 | 0.01 | 0.00 | 96 | 1011.6 |
| 20260904104226 | 75 | 190 | 0.0 | 0.0 | 0.00 | 0.01 | 0.00 | 96 | 1011.4 |
| 20260904103706 | 75 | 146 | 0.0 | 0.0 | 0.00 | 0.01 | 0.00 | 96 | 1011.5 |
| 20260904103204 | 75 | 149 | 0.0 | 0.0 | 0.00 | 0.01 | 0.00 | 96 | 1011.4 |
| 20260904102604 | 75 | 177 | 1.0 | 1.0 | 0.00 | 0.01 | 0.00 | 96 | 1011.5 |
| 20260904102510 | 75 | 208 | 0.0 | 0.0 | 0.00 | 0.01 | 0.00 | 95 | 1011.4 |
| 20260904101349 | 75 | 219 | 0.0 | 0.0 | 0.00 | 0.01 | 0.00 | 95 | 1011.4 |
| 20260904101307 | 75 | 219 | 0.0 | 0.0 | 0.00 | 0.01 | 0.00 | 95 | 1011.4 |
| 20260904100611 | 75 | 208 | 0.0 | 0.0 | 0.00 | 0.01 | 0.00 | 95 | 1011.5 |
| 20260904095739 | 75 | 208 | 0.0 | 0.0 | 0.00 | 0.01 | 0.00 | 95 | 1011.4 |
| 20260904095323 | 75 | 177 | 0.0 | 0.0 | 0.00 | 0.01 | 0.00 | 95 | 1011.4 |
| 20260904095314 | 76 | 176 | 0.0 | 1.0 | 0.00 | 0.01 | 0.00 | 95 | 1011.4 |
| 20260904095131 | 75 | 246 | 0.0 | 0.0 | 0.00 | 0.01 | 0.00 | 95 | 1011.4 |
| 20260904094415 | 75 | 158 | 0.0 | 1.0 | 0.00 | 0.01 | 0.00 | 95 | 1011.3 |
| 20260904093832 | 75 | 221 | 0.0 | 0.0 | 0.00 | 0.01 | 0.00 | 95 | 1011.4 |
| 20260904093300 | 75 | 177 | 0.0 | 0.0 | 0.00 | 0.01 | 0.00 | 95 | 1011.4 |
| 20260904092545 | 76 | 176 | 0.0 | 1.0 | 0.00 | 0.01 | 0.00 | 95 | 1011.4 |
| 20260904092124 | 76 | 174 | 0.0 | 1.0 | 0.00 | 0.01 | 0.00 | 95 | 1011.6 |
| 20260904092114 | 76 | 242 | 1.0 | 2.0 | 0.00 | 0.01 | 0.00 | 95 | 1011.4 |
| 20260904091720 | 76 | 201 | 0.0 | 0.0 | 0.00 | 0.01 | 0.00 | 95 | 1011.4 |
| 20260904090932 | 76 | 174 | 0.0 | 0.0 | 0.00 | 0.01 | 0.00 | 95 | 1011.4 |
| 20260904090313 | 76 | 174 | 0.0 | 1.0 | 0.00 | 0.01 | 0.00 | 95 | 1011.6 |
| 20260904085810 | 76 | 242 | 1.0 | 2.0 | 0.00 | 0.01 | 0.00 | 95 | 1011.4 |
| 20260904085311 | 76 | 203 | 0.0 | 1.0 | 0.00 | 0.01 | 0.00 | 95 | 1011.4 |
| 20260904084923 | 76 | 342 | 0.0 | 0.0 | 0.00 | 0.01 | 0.00 | 95 | 1011.4 |
| 20260904084915 | 76 | 163 | 1.0 | 0.0 | 0.00 | 0.01 | 0.00 | 95 | 1011.3 |
| 20260904084807 | 76 | 210 | 0.0 | 1.0 | 0.00 | 0.01 | 0.00 | 95 | 1011.3 |
| 20260904084259 | 76 | 278 | 0.0 | 0.0 | 0.00 | 0.01 | 0.00 | 95 | 1011.4 |
| 20260904083759 | 76 | 225 | 1.0 | 1.0 | 0.00 | 0.01 | 0.00 | 95 | 1011.3 |
| 20260904083259 | 76 | 114 | 0.0 | 1.0 | 0.00 | 0.01 | 0.00 | 95 | 1011.4 |
| 20260904082749 | 76 | 342 | 0.0 | 0.0 | 0.00 | 0.01 | 0.00 | 95 | 1011.4 |
| 20260904082248 | 76 | 163 | 1.0 | 0.0 | 0.00 | 0.01 | 0.00 | 95 | 1011.3 |